Location: Unspecified
(52.4292°N, 19.3359°E)
Time: 12:19:14
(UTC+02:00)

deb Explorer IX - Pass Details

Date: 23 May 2024
Orbit: 510 x 885 km, 38.7° (Epoch: 16 June)

Event Time Altitude Azimuth Distance (km) Brightness Sun altitude
Rises 22:06:44 0° 218° (SW) 3,056 ? -9.6°
Reaches altitude 10° 22:10:54 10° 185° (S) 2,032 ? -10.0°
Enters shadow 22:12:13 11° 169° (S) 1,913 ? -10.1°
Maximum altitude 22:12:21 11° 167° (SSE) 1,908 - -10.1°
Drops below altitude 10° 22:13:46 10° 149° (SSE) 1,961 - -10.2°
Sets 22:17:33 0° 114° (ESE) 2,773 - -10.5°
